Location: Riverside
(39.1734°N, 77.8561°W)
Time: 22:07:28
(UTC+00:00)

Hubble Space Telescope - Pass Details

Date: 23 November 2019
Orbit: 536 x 540 km, 28.5° (Epoch: 10 December)

Event Time Altitude Azimuth Distance (km) Brightness Sun altitude
Rises 23:54:26 0° 244° (WSW) 2,669 5.5 -23.4°
Reaches altitude 10° 23:57:13 10° 225° (SW) 1,779 4.1 -23.9°
Maximum altitude 00:00:05 18° 181° (S) 1,334 2.8 -24.5°
Enters shadow 00:00:07 18° 181° (S) 1,334 2.8 -24.5°
